World > North America > United States > Ohio

Hourly Walton Hills, OH Regional Weather

Feedback E-mail the Weather

Quick WX

Walton Hills, OH Weather Maps

°F °C°F °C
Walton Hills Weather Map
UTC Time: 7/2/2022, 12:16
Your Time:

Walton Hills, OH Regional Weather

Expires:202207021300;;549565
ASUS41 KCLE 021212
RWRCLE
OHIO REGIONAL WEATHER ROUNDUP
NATIONAL WEATHER SERVICE WILMINGTON, OH
800 AM EDT SAT JUL 02 2022

NOTE: "FAIR" INDICATES FEW OR NO CLOUDS BELOW 12,000 FEET WITH NO
SIGNIFICANT WEATHER AND/OR OBSTRUCTIONS TO VISIBILITY.


OHZ009>014-019>023-028>033-038-089-021300-
   NORTHEAST OHIO
  
CITY           SKY/WX    TMP DP  RH WIND       PRES   REMARKS
CLE-HOPKINS    FAIR      71  64  78 W9        29.99R                  
CLE-LAKEFRONT  FAIR      71  61  70 NW13      29.99R                  
CUY CO. ARPT   SUNNY     70  63  78 W7        30.00R                  
LORAIN-ELYRIA  FAIR      69  61  75 NW7       30.02R                  
ASHTABULA      PTSUNNY   70  67  90 W9        29.99R FOG              
AKRON-CANTON   PTSUNNY   71  67  87 NW7       30.00R FOG              
WOOSTER        NOT AVBL                                               
MANSFIELD      FAIR      69  60  73 NW7       30.03R                  
YOUNGSTOWN     PTSUNNY   69  67  93 W8        29.99S FOG              
$$
 

SKY/WX - Weather  TMP - Temperature  DP - Dew Point  RH - Humidity
WIND - Wind Direction/Speed PRES - Barometric Pressure VSB - Visibility
WCI - Wind Chill Index E13G22 Wind - East Wind 13 mph/Gusts of 22 mph

Trending Headlines

Walton Hills Radar Loop



Walton Hills Quick Facts


National Two Day Weather Forecast


E-mail the Walton Hills Weather Forecast

Voice your opinion or tell us about page issues...